Find Starlink 1541

NORAD ID: 46052 Int'l Des: 2020-055 Owner: SPXS Country: US Constellation: starlink operational
LEOCIRCULAR

实时位置

正在加载3D地球...

关于 Starlink 1541

正在加载描述...

即将过境

Passes for default location (London). Set your location on the main map for personalized predictions.

高度历史

Loading altitude history...

两行轨道根数

1 46052U 20055AB 26107.00002315 .00144003 00000-0 25353-2 0 9998
2 46052 53.1592 295.1909 0001059 70.6602 236.3265 15.49471647 5869
Epoch: Apr 17, 2026 • Age: 7 hours

当前状态

高度 420.3 km
速度 7.66 km/s
星下点 35.39°N, 131.48°E
发射日期 Aug 7, 2020
运行时间 5.6 years
类型 internet

技术详情

分类 Payload
质量 260.00 kg
干质量 248.00 kg
总质量 260.00 kg
长度 0.20 m
直径 2.80 m
跨度 9.00 m
形状 Box + pan
制造商 SPXS
平台类型 Starlink
阶段状态 In Orbit
所有者/国家 SPXS/US

Most Searched